Terminal Aerodrome Forecast
Issued by NWS

Home | Current Version | Previous Version | Text Only | Print | Product List | Glossary On
Versions: 1 2 3 4 5 6 7 8 9 10 11 12 13 14 15 16 17 18 19 20 21 22 23 24 25 26 27 28 29 30 31
000
FTAK31 PANC 011136
TAFADQ
TAF
PADQ 011136Z 0112/0212 32006KT P6SM SCT015 BKN035
      TEMPO 0112/0116 -SHRA BKN015
     FM020000 04006KT P6SM SCT040 BKN100
     FM020600 30007KT P6SM SCT100=

USA.gov is the U.S. government's official web portal to all federal, state and local government web resources and services.